FW2998 Weather Reports


time (UTC)temp
F
wind
direction
speed
knots
gust
knots
rain 1hr
in
rain 24hr
in
rain mn
in
humidity
%
barometer
mb
20260503200037 74 0 0.0 3.5 0.01 0.04 0.03 38 1017.8
20260503195519 74 0 0.0 7.0 0.01 0.04 0.03 38 1018.0
20260503195020 73 280 1.7 7.0 0.01 0.04 0.03 35 1018.1
20260503194538 74 279 0.9 6.1 0.01 0.04 0.03 36 1018.1
20260503194020 73 0 0.0 7.8 0.01 0.04 0.03 38 1018.1
20260503193522 73 0 2.6 7.8 0.01 0.04 0.03 36 1018.2
20260503193036 73 224 0.0 6.1 0.01 0.04 0.03 38 1018.4
20260503192521 73 94 0.0 6.1 0.01 0.04 0.03 37 1018.4
20260503192018 73 261 0.0 7.8 0.01 0.04 0.03 38 1018.5
20260503191538 73 291 1.7 7.8 0.01 0.04 0.03 37 1018.6
20260503191021 73 71 0.9 7.8 0.00 0.03 0.02 35 1018.8
20260503190523 73 66 0.9 5.2 0.00 0.03 0.02 35 1018.8
20260503190049 73 0 0.9 5.2 0.00 0.03 0.02 35 1018.9
20260503185520 72 0 0.0 4.3 0.00 0.04 0.02 36 1019.1
20260503185020 72 0 0.9 8.7 0.00 0.04 0.02 34 1019.2
20260503184536 72 252 1.7 8.7 0.00 0.04 0.02 36 1019.3
20260503184019 72 288 1.7 8.7 0.00 0.04 0.02 34 1019.2
20260503183518 72 0 0.0 3.5 0.00 0.04 0.02 36 1019.3
20260503183042 72 271 0.0 3.5 0.00 0.04 0.02 37 1019.3
20260503182519 72 272 0.0 3.5 0.00 0.04 0.02 37 1019.5
20260503182019 72 0 0.0 5.2 0.00 0.04 0.02 36 1019.5
20260503181536 72 0 0.9 8.7 0.00 0.04 0.02 35 1019.5
20260503181022 72 0 0.9 8.7 0.00 0.04 0.02 37 1019.7
20260503180522 72 177 0.9 4.3 0.00 0.04 0.02 37 1019.6
20260503180039 72 113 0.0 3.5 0.00 0.04 0.02 39 1019.7
20260503175523 72 0 0.0 8.7 0.00 0.04 0.02 38 1019.8
20260503175022 72 249 0.0 8.7 0.00 0.04 0.02 37 1019.9
20260503174539 72 0 1.7 7.0 0.00 0.04 0.02 38 1019.8
20260503174022 72 0 0.0 3.5 0.00 0.04 0.02 39 1019.8
20260503173521 72 0 0.0 3.5 0.00 0.04 0.02 39 1019.8
20260503173056 72 0 0.0 3.5 0.00 0.04 0.02 37 1019.8
20260503172521 71 70 0.0 3.5 0.00 0.04 0.02 40 1019.9
20260503172021 71 0 0.0 7.0 0.00 0.04 0.02 41 1020.1
20260503171542 71 162 0.0 7.0 0.00 0.04 0.02 43 1020.1
20260503171022 71 0 0.9 3.5 0.00 0.04 0.02 40 1020.1
20260503170520 71 94 0.9 3.5 0.00 0.04 0.02 40 1020.1
20260503150521 66 0 0.0 2.6 0.00 0.04 0.02 46 1021.3
20260503131021 54 110 0.0 2.6 0.00 0.03 0.01 94 1020.6
20260503130520 53 0 0.0 2.6 0.00 0.03 0.01 95 1020.6
20260503110520 45 0 0.0 0.0 0.00 0.04 0.01 92 1019.7
20260503081544 48 0 0.0 0.0 0.01 0.05 0.01 90 1017.6
20260503081019 48 0 0.0 0.0 0.01 0.05 0.01 90 1017.6
20260503080519 48 0 0.0 0.0 0.01 0.05 0.01 90 1017.6
20260503072521 49 0 0.0 0.0 0.00 0.04 0.00 89 1017.3
20260503072022 49 0 0.0 0.0 0.00 0.04 0.00 89 1017.2
20260503071543 49 0 0.0 0.0 0.00 0.04 0.00 90 1017.1
20260503071019 49 0 0.0 0.0 0.00 0.04 0.00 90 1017.1
20260503070518 49 0 0.0 0.0 0.00 0.04 0.00 89 1017.1
20260503055019 52 0 0.0 0.0 0.00 0.04 0.00 89 1016.8
20260503054541 52 0 0.0 0.0 0.00 0.04 0.00 89 1016.7
20260503054018 52 0 0.0 0.0 0.00 0.04 0.00 89 1016.7
20260503053519 52 0 0.0 0.0 0.00 0.04 0.00 89 1016.7
20260503053034 52 0 0.0 0.0 0.00 0.04 0.00 90 1016.7
20260503052522 53 0 0.0 0.0 0.00 0.04 0.00 90 1016.7
20260503052020 53 0 0.0 0.0 0.00 0.04 0.00 90 1016.7
20260503051536 53 0 0.0 0.0 0.00 0.04 0.00 90 1016.7
20260503051021 53 0 0.0 0.0 0.00 0.04 0.00 90 1016.6
20260503050520 53 0 0.0 0.0 0.00 0.04 0.00 90 1016.6
20260503050037 53 0 0.0 0.0 0.00 0.04 0.00 90 1016.4
20260503045519 53 0 0.0 0.0 0.00 0.04 0.00 90 1016.5
20260503045020 53 0 0.0 0.0 0.00 0.04 0.00 90 1016.4
20260503044537 53 0 0.0 0.0 0.00 0.04 0.00 90 1016.4
20260503044019 53 0 0.0 0.0 0.00 0.04 0.00 90 1016.4
20260503043518 54 0 0.0 0.0 0.00 0.04 0.00 90 1016.4
20260503043036 54 0 0.0 0.0 0.00 0.04 0.00 90 1016.3
20260503042522 54 0 0.0 0.0 0.00 0.04 0.00 90 1016.4
20260503042018 54 0 0.0 0.0 0.00 0.04 0.00 90 1016.3
20260503041536 53 0 0.0 0.0 0.00 0.04 0.00 90 1016.4
20260503041019 54 0 0.0 0.0 0.00 0.04 0.00 90 1016.4
20260503040525 53 0 0.0 0.0 0.00 0.04 0.00 90 1016.5
20260503040035 54 0 0.0 0.0 0.00 0.04 0.00 90 1016.6
20260503035520 53 0 0.0 0.0 0.00 0.04 0.04 90 1016.5
20260503035019 53 0 0.0 0.0 0.00 0.04 0.04 90 1016.5
20260503034536 53 0 0.0 0.0 0.00 0.04 0.04 89 1016.4
20260503034020 54 0 0.0 0.0 0.00 0.04 0.04 89 1016.3
20260503033519 53 0 0.0 0.0 0.00 0.04 0.04 89 1016.3
20260503033043 53 0 0.0 0.0 0.00 0.04 0.04 89 1016.4
20260503032520 53 0 0.0 0.0 0.00 0.04 0.04 89 1016.4
20260503032020 53 0 0.0 0.0 0.00 0.04 0.04 89 1016.4
20260503031537 53 0 0.0 0.0 0.00 0.04 0.04 89 1016.2
20260503031020 53 0 0.0 0.0 0.00 0.04 0.04 88 1016.2
20260503030519 53 0 0.0 0.0 0.00 0.04 0.04 88 1016.2
20260503030035 53 0 0.0 0.0 0.00 0.04 0.04 88 1016.1
20260503025519 53 0 0.0 0.0 0.00 0.04 0.04 88 1015.9
20260503025020 53 0 0.0 0.0 0.00 0.04 0.04 88 1015.9
20260503024538 53 0 0.0 0.0 0.00 0.04 0.04 88 1016.0
20260503024021 53 0 0.0 0.0 0.00 0.04 0.04 87 1015.8
20260503023520 53 0 0.0 0.0 0.00 0.04 0.04 87 1015.5
20260503023034 53 0 0.0 0.0 0.00 0.04 0.04 87 1015.4
20260503022519 53 0 0.0 0.0 0.00 0.04 0.04 86 1015.2
20260503022019 53 0 0.0 0.0 0.00 0.04 0.04 86 1015.1
20260503021532 53 0 0.0 0.0 0.00 0.04 0.04 86 1015.1
20260503021019 53 0 0.0 0.0 0.00 0.04 0.04 86 1015.1
20260503020519 53 0 0.0 0.0 0.00 0.04 0.04 86 1015.1
20260503020044 53 0 0.0 0.0 0.00 0.04 0.04 86 1014.9
20260503015520 53 0 0.0 0.0 0.00 0.04 0.04 86 1014.9
20260503015019 53 0 0.0 0.0 0.00 0.04 0.04 85 1014.8
20260503014558 53 0 0.0 0.0 0.00 0.04 0.04 85 1014.6
20260503014020 53 0 0.0 0.0 0.00 0.04 0.04 85 1014.5
20260503013521 53 0 0.0 0.0 0.00 0.04 0.04 84 1014.5
20260503013040 54 0 0.0 0.0 0.00 0.04 0.04 84 1014.4
20260503012521 54 0 0.0 0.0 0.00 0.04 0.04 84 1014.5
20260503012017 54 0 0.0 0.0 0.00 0.04 0.04 84 1014.3
20260503011542 54 0 0.0 0.0 0.00 0.04 0.04 84 1014.2
20260503011021 54 0 0.0 0.0 0.00 0.04 0.04 83 1014.2
20260503010519 54 0 0.0 0.0 0.00 0.04 0.04 83 1014.1
20260503010047 54 0 0.0 0.0 0.00 0.04 0.04 83 1014.1
20260503005520 54 0 0.0 0.0 0.00 0.04 0.04 82 1014.0
20260503005020 54 0 0.0 0.0 0.00 0.04 0.04 81 1013.9
20260503004534 55 0 0.0 0.0 0.00 0.04 0.04 81 1013.9
20260503004018 55 0 0.0 0.0 0.00 0.04 0.04 80 1013.8
20260503003519 55 0 0.0 0.0 0.00 0.04 0.04 79 1013.8
20260503003036 56 0 0.0 0.0 0.00 0.04 0.04 79 1013.7
20260503002521 56 0 0.0 0.0 0.00 0.04 0.04 78 1013.7
20260503002017 56 0 0.0 0.0 0.00 0.04 0.04 78 1013.6
20260503001536 57 0 0.0 0.0 0.00 0.04 0.04 77 1013.5
20260503001019 57 0 0.0 0.0 0.00 0.04 0.04 76 1013.4
20260503000522 57 0 0.0 0.0 0.00 0.04 0.04 76 1013.4
20260503000036 58 0 0.0 0.0 0.00 0.04 0.04 75 1013.3
20260502235520 58 0 0.0 0.0 0.00 0.04 0.04 75 1013.3
20260502235019 58 0 0.0 0.0 0.00 0.04 0.04 75 1013.3
20260502234541 58 0 0.0 0.0 0.00 0.04 0.04 75 1013.2
20260502234018 58 0 0.0 0.0 0.00 0.04 0.04 75 1013.1
20260502233519 58 0 0.0 0.9 0.00 0.04 0.04 74 1012.9
20260502233036 59 0 0.0 0.9 0.00 0.04 0.04 74 1012.9
20260502232518 59 0 0.0 0.0 0.00 0.04 0.04 75 1012.9
20260502232019 59 0 0.0 0.0 0.00 0.04 0.04 74 1012.9
20260502231534 59 0 0.0 1.7 0.00 0.04 0.04 74 1012.8
20260502231017 59 0 0.0 1.7 0.00 0.04 0.04 74 1012.7
20260502230517 59 0 0.0 1.7 0.01 0.04 0.04 73 1012.7
20260502230036 59 0 0.0 0.9 0.01 0.04 0.04 75 1012.8
20260502225517 59 0 0.0 0.0 0.01 0.04 0.04 75 1012.9
20260502225017 59 0 0.0 0.0 0.01 0.04 0.04 74 1012.8
20260502224536 59 0 0.0 0.0 0.01 0.04 0.04 74 1012.8
20260502224020 59 0 0.0 0.0 0.01 0.04 0.04 74 1012.9
20260502223520 59 0 0.0 3.5 0.01 0.04 0.04 74 1012.7
20260502223038 59 0 0.0 3.5 0.01 0.04 0.04 74 1012.7
20260502222520 59 0 0.0 1.7 0.01 0.04 0.04 73 1012.7
20260502222020 59 0 0.0 1.7 0.01 0.04 0.04 73 1012.8
20260502221535 59 0 0.0 3.5 0.01 0.04 0.04 73 1012.8
20260502221018 59 0 0.0 3.5 0.01 0.04 0.04 73 1012.8
20260502220519 59 0 0.0 2.6 0.00 0.03 0.03 74 1012.8
20260502220032 59 0 0.0 2.6 0.00 0.03 0.03 73 1012.8
20260502215520 59 0 0.0 1.7 0.00 0.03 0.03 72 1012.8
20260502215019 59 0 0.0 1.7 0.00 0.03 0.03 73 1012.7
20260502214536 59 0 0.0 1.7 0.00 0.03 0.03 73 1012.8
20260502214019 59 52 0.0 0.9 0.00 0.03 0.03 72 1012.7
20260502213518 59 0 0.0 0.9 0.00 0.03 0.03 73 1012.7
20260502213036 59 0 0.0 1.7 0.00 0.03 0.03 72 1012.5
20260502212524 59 0 0.0 2.6 0.00 0.03 0.03 72 1012.3
20260502212020 59 0 0.0 2.6 0.00 0.03 0.03 72 1012.3
20260502211542 59 5 0.0 5.2 0.00 0.03 0.03 72 1012.4
20260502211023 59 0 0.0 5.2 0.00 0.03 0.03 72 1012.4
20260502210519 59 0 0.9 5.2 0.00 0.03 0.03 71 1012.3
20260502210038 59 107 0.9 5.2 0.00 0.03 0.03 70 1012.5
20260502205522 59 0 0.0 5.2 0.00 0.03 0.03 71 1012.6
20260502205025 59 0 0.0 4.3 0.00 0.03 0.03 70 1012.6
20260502204540 59 0 0.0 5.2 0.00 0.03 0.03 71 1012.6
20260502204020 59 76 0.0 5.2 0.00 0.03 0.03 72 1012.7
20260502203521 59 0 0.0 5.2 0.00 0.03 0.03 73 1012.6
20260502203039 59 0 0.9 5.2 0.00 0.03 0.03 75 1012.6
20260502202521 58 82 0.0 2.6 0.00 0.03 0.03 77 1012.5
20260502202022 57 0 0.0 2.6 0.00 0.03 0.03 78 1012.6
20260502201537 57 0 0.0 2.6 0.00 0.03 0.03 78 1012.6
20260502201023 56 0 0.0 5.2 0.00 0.03 0.03 78 1012.6
20260502200520 56 0 0.9 5.2 0.00 0.03 0.03 77 1012.6